Location: ???? ????
(31.2831°N, 45.5190°E)
Time: 07:34:38
(UTC+00:00)

Sich 1 - Pass Details

Date: 24 February 2021
Orbit: 593 x 626 km, 82.5° (Epoch: 15 April)

Event Time Altitude Azimuth Distance (km) Brightness Sun altitude
Rises 15:43:50 0° 184° (S) 2,842 6.6 -11.7°
Reaches altitude 10° 15:46:01 10° 184° (S) 1,948 5.7 -12.2°
Maximum altitude 15:50:20 87° 98° (E) 616 3.0 -13.1°
Drops below altitude 10° 15:54:43 10° 7° (N) 1,981 5.6 -14.1°
Sets 15:56:58 0° 7° (N) 2,894 6.4 -14.5°
